Location: Area 52 Observatory
(34.2620°N, 119.2590°W)
Time: 19:20:44
(UTC-07:00)

Hubble Space Telescope - Pass Details

Date: 29 March 2019
Orbit: 537 x 540 km, 28.5° (Epoch: 19 April)

Event Time Altitude Azimuth Distance (km) Brightness Sun altitude
Rises 20:17:24 0° 258° (WSW) 2,674 5.6 -13.4°
Reaches altitude 10° 20:19:46 10° 249° (WSW) 1,783 4.3 -13.9°
Maximum altitude 20:23:34 36° 182° (S) 853 1.6 -14.6°
Enters shadow 20:25:25 24° 133° (SE) 1,141 1.9 -15.0°
